Вернуться в каталог

COSMOS 2251 DEB

АктивенLEO
NORAD 35706·DEBRIS·🇷🇺 Russia

Запущен Jun 16, 1993 с Plesetsk Cosmodrome

Loading…

Ближайшие Пролёты (ближайшие 24 часа)

TLE

УстаревшееSource: Space-Track

Эпоха: Aug 30, 2026, 13:21 UTC

1 35706U 93036AQB 26242.55641312  .00000479  00000-0  40158-3 0  9996
2 35706  73.8882 351.5901 0344771 354.0068   5.6965 13.66576770656247

Отслеживайте COSMOS 2251 DEB в реальном времени с AllMySat

Download on the App Store